Location: Kapuskasing
(49.3803°N, 82.4001°W)
Time: 14:44:18
(UTC-05:00)

RS-44 - Pass Details

Date: 12 December 2025
Orbit: 1174 x 1511 km, 82.5° (Epoch: 21 January)

Event Time Altitude Azimuth Distance (km) Brightness Sun altitude
Exits shadow 04:43:00 16° 344° (NNW) 3,203 ? -33.5°
Drops below altitude 10° 04:45:00 10° 355° (N) 3,624 ? -33.2°
Sets 04:48:40 0° 9° (N) 4,567 ? -32.6°
